User: anonymous   Login
Location: Newark
(25.6108°S, 54.5803°W)
Time: 21:02:37
(UTC+00:00)
Language:

Transit 2A Rocket - Orbit

View from above orbital plane
View from above orbital plane
View from above satellite
View from above satellite

Ground track
Ground track

The orbit data is extracted from the following two-line orbital elements,

1    47U 60007C   20301.88783066 -.00000026 +00000-0 +19391-4 0  9992
2    47 066.6649 160.8657 0231478 208.0031 150.8463 14.42106793153779
Epoch (UTC): 27 October 2020 21:18:28
Eccentricity: 0.0231478
inclination: 66.6649°
perigee height: 586 km
apogee height: 916 km
right ascension of ascending node: 160.8657°
argument of perigee: 208.0031°
revolutions per day: 14.42106793
mean anomaly at epoch: 150.8463°
orbit number at epoch: 15377

The dashed part of the orbit path shows where the satellite is in the earth's shadow,  

DLR